SL-8 R/B, 3131

Orbit data source: Space-Track

SL-8 R/B, 3131 is space debris in LEO originally from a launch on Tue, 20 Feb 1968 UTC launched from the Plesetsk Missile And Space Complex (PKMTR). Debris objects in space refer to the collection of defunct objects orbiting the Earth. Examples of debris include non-operational satellites, rocket bodies, and fragments generated from explosions, collisions, or faulty payload assembly.

Loading next visibility...
Identifier
3131, 1968-011B
Orbit
LEO
Country
Flag of CISCIS
Related business
Manufacturer
Yuzhnoe
Mission
Spacecraft
Bus & Motor
S3, Unknown motor
Mass
1,434 kg wet, 1,434 kg dry
Launch date (UTC)
1968-02-20 (58 years ago)
Launch vehicle
Unknown
Launch site
Plesetsk Missile And Space Complex (PKMTR)
Object type
Payload
Rocket body
Debris
Shape & HBR
Unknown
Radar Cross Section
Large (>1 m²)

Expand to show TLE details & history
Last TLE update: 4 hours ago

TLE from 4 hours ago
0 SL-8 R/B
1 03131U 68011B   26073.61834792 -.00000057  00000-0 -98162-4 0  9996
2 03131  74.0474 254.5815 0013886 119.2744 240.9734 13.18031703792891
Epoch: 2026-03-14T14:50Z
TLE epoch observation values (Epoch: 2026-03-14T14:50:25.260Z)
Latitude
-0.00008°
Longitude
-140.26071°
Altitude
1,199.827 km
Speed
7.252 km/s
True Right ascension
16h 58m 19s
True Declination
0° 00' 00"
Sunlit
Object was in daylight at epoch
Visualization orbit readout
Latitude
Unknown
Longitude
Unknown
Altitude
Unknown
Speed
Unknown
Apparent Right ascension
Unknown
Apparent Declination
Unknown
Sunlit
N/A
Visualization observer readout
Local Sidereal Time
23:03:38
Azimuth
Unknown
Elevation
Unknown
Doppler factor
Unknown
Orbital elements
Apogee altitude
1,200.512 km
Perigee altitude
1,179.494 km
Semi-major axis
7,568.14 km
Eccentricity
0.00139
Inclination
74.0474°
RAAN
254.5815°
Arg. of periapsis
119.2744°
True anomaly
240.83438°
Mean anomaly
240.9734°
Eccentric anomaly
240.90388°
Mean motion
3.29655 °/min
Orbital period
109.21 mins
BSTAR
-0.000098162
Loading maneuver chart data...
Computing Atmospheric mass density...
Loading historical data...
Loading historical data...
Loading historical data...
Loading historical data...
Loading historical data...
Loading historical data...
Loading historical data...
Other satellites on launch #11 in the year 1968 (1968-02-20 UTC)

Documentation

Showing up to 5 results
|